Погода в Эфории-Норде

Румыния     44°03′58″N   28°37′45″E
темп.,
°C
ветер,
м/с
пор.,
м/с
влажн.,
%
обл.,
%
осадки,
мм/ч
давл.,
гПа
погр.,
м
14 августа, вс
вс1400:00+24юз227315 0.1 100871
03:00+24з227440 0.3 1007124
06:00+24сз447422 0.0 1006202
09:00+24ссз22640 0.0 1006254
12:00+25вюв32630 0.0 1006391
15:00+26юв65700 0.0 1005434
18:00+26ююв55730 0.0 1005378
21:00+25ююв56810 0.0 1005316
15 августа, пн
пн1500:00+23з787820 0.9 1006394
03:00+20зсз688734 0.9 1005291
06:00+20зсз5589100 0.0 1005257
09:00+22зсз447811 0.0 1006351
12:00+25ююв226144 0.0 1006359
15:00+24ююв767294 0.3 1005275
18:00+25ююв797689 0.5 1005251
21:00+25ююз687512 0.6 1006272
16 августа, вт
вт1600:00+23з457019 0.1 1006113
03:00+23зюз56695 0.2 1007142
06:00+23з45695 0.0 1007170
09:00+25з45615 0.0 1008347
12:00+27ююв44580 0.0 1007343
15:00+27ююв896533 0.0 1007272
18:00+27ю711690 0.0 1007218
21:00+27ююз7116793 0.0 1008212
17 августа, ср
ср1700:00+26юз33635 0.0 100823
03:00+24сз676624 0.0 1008143
06:00+24сз69675 0.0 1008211
09:00+25сз45635 0.1 1009286
12:00+26в33605 0.0 1009331
15:00+26юв66665 0.0 1009200
18:00+26ю68717 0.0 1008150
21:00+26ююз686764 0.0 1009106
18 августа, чт
чт1800:00+26с58662 0.0 1009164
03:00+25с45765 0.0 1009108
06:00+24ссз67845 0.0 1009246
09:00+25с55730 0.0 1010332
12:00+26всв44685 0.0 1010345
15:00+25вюв55721 0.0 1009200
18:00+26ююв667576 0.0 1009226
21:00+25ю78809 0.0 1008180